Location: Chanteloup
(48.8560°N, 2.7390°E)
Time: 00:06:19
(UTC+00:00)

Cosmos 2322 Rocket - Pass Details

Date: 02 June 2022
Orbit: 833 x 850 km, 71.0° (Epoch: 03 July)

Event Time Altitude Azimuth Distance (km) Brightness Sun altitude
Rises 20:28:27 0° 191° (S) 3,366 5.0 -6.2°
Reaches altitude 10° 20:30:55 10° 187° (S) 2,436 4.2 -6.5°
Maximum altitude 20:36:20 55° 111° (ESE) 1,001 2.3 -7.1°
Drops below altitude 10° 20:41:48 10° 35° (NE) 2,453 4.8 -7.8°
Sets 20:44:17 0° 32° (NNE) 3,393 5.6 -8.0°
